x

Gravelly Shoals Light Mi (gslm4) Weather Station

7:40pm - Fri 6th Mar 2015 All times are CST. -6 hours from GMT.

  • Wind
    17mph, 23mph gusts
  • Air Temp 20°f
  • Sea Pressure 1019.6mb
  • Gravelly Shoals Light Mi
  • Gravelly Shoals Light Mi

More Historic Weather Station data

Upgrade to MSW Pro to gain access to the past 30 days of data for over 8000 Wavebouys and Weather Stations around the globe.

Join Pro

Comparision Forecast

View Surf forecast
   
Fri 03/06 7:40pm 17 23 mph 1019.6mb 20f
7:30pm 21 23 mph 1019.6mb 19f
7:20pm 14 21 mph 1019.6mb 19f
7:10pm 13 20 mph 1019.6mb 20f
7:00pm 15 23 mph 1019.6mb 20f
6:40pm 22 25 mph 1020mb 19f
6:30pm 20 22 mph 1020mb 19f
6:20pm 14 17 mph 1020mb 19f
6:10pm 10 14 mph 1020mb 19f
6:00pm 10 15 mph 1020mb 19f
5:30pm 8 10 mph 1020.3mb 19f
5:21pm 5 16 mph 1020.3mb 19f
5:20pm 5 8 mph 1020.3mb 19f
5:10pm 2 9 mph 1020.3mb 19f
5:00pm 5 13 mph 1020.7mb 19f
4:40pm 8 11 mph 1020.7mb 19f
4:30pm 8 16 mph 1020.7mb 19f
4:21pm 13 16 mph 1021mb 20f
4:20pm 13 21 mph 1021mb 20f
4:10pm 18 24 mph 1021mb 20f
4:00pm 20 28 mph 1021mb 20f
3:40pm 23 30 mph 1021.7mb 19f
3:30pm 25 29 mph 1022mb 19f
3:21pm 25
mph
1021.7mb 19f
3:20pm 25 31 mph 1021.7mb 19f
3:10pm 20 29 mph 1022mb 19f
3:00pm 21 28 mph 1022.4mb 19f
2:40pm 10 26 mph 1022.4mb 19f
2:30pm 7 17 mph 1022.7mb 19f
2:20pm 6 18 mph 1022.7mb 19f
2:10pm 10 20 mph 1023mb 19f
2:00pm 10 21 mph 1023mb 19f
1:40pm 20 29 mph 1023.7mb 19f
1:30pm 21 26 mph 1023.7mb 18f
1:20pm 21 26 mph 1023.7mb 18f
1:10pm 21 25 mph 1024mb 18f
1:00pm 22 28 mph 1024mb 17f
12:40pm 20 28 mph 1024.7mb 17f
12:30pm 11 23 mph 1024.7mb 17f
12:20pm 10 25 mph 1025.1mb 17f
12:19pm 14 25 mph 1025.1mb 17f
12:10pm 10 28 mph 1025.4mb 17f
12:00pm 21 32 mph 1025.4mb 16f
11:40am 10 28 mph 1026.1mb 16f
11:30am 11 29 mph 1026.4mb 15f
11:20am 17 32 mph 1026.8mb 15f
11:19am 20
mph
1026.8mb 15f
11:10am 8 28 mph 1026.8mb 15f
11:00am 8 23 mph 1026.8mb 14f
10:40am 11 21 mph 1027.4mb 13f
10:30am 7 21 mph 1027.4mb 13f
10:20am 8 16 mph 1027.4mb 12f
10:18am 8 16 mph 1027.4mb 12f
10:10am 6 13 mph 1027.4mb 12f
10:00am 3 8 mph 1027.4mb 12f
9:40am 5 11 mph 1028.1mb 10f
9:30am 8 11 mph 1028.1mb 9f
9:20am 7 11 mph 1028.1mb 9f
9:18am 7 13 mph 1028.1mb 8f
9:10am 8 13 mph 1028.1mb 8f
9:00am 8 11 mph 1028.4mb 8f
8:40am 5 9 mph 1028.8mb 7f
8:30am 5 8 mph 1028.8mb 6f
8:20am 5 11 mph 1028.8mb 6f
8:18am 6 11 mph 1028.8mb 6f
8:10am 5 9 mph 1028.8mb 6f
8:00am 7 9 mph 1028.8mb 5f
7:40am 8 10 mph 1028.8mb 4f
7:30am 6 9 mph 1028.8mb 3f
7:20am 3 7 mph 1029.1mb 3f
7:17am 3 14 mph 1029.1mb 2f
7:10am 3 7 mph 1029.1mb 2f
7:00am 2 14 mph 1029.1mb 1f
6:40am 5 8 mph 1029.1mb 1f
6:30am 3 8 mph 1029.5mb 1f
6:20am 3 8 mph 1029.5mb 1f
6:17am 2 9 mph 1029.5mb 1f
6:10am 2 7 mph 1029.5mb -
6:00am 3 6 mph 1029.5mb -
5:40am 6 9 mph 1029.5mb -
5:30am 7 9 mph 1029.5mb -
5:20am 6 9 mph 1029.5mb -
5:16am 7 9 mph 1029.5mb -
5:10am 7 9 mph 1029.8mb -
5:00am 6 7 mph 1029.8mb -
4:40am 3 6 mph 1029.8mb -
4:30am 2 5 mph 1030.1mb -
4:20am 2 5 mph 1030.1mb -
4:16am 2 8 mph 1030.1mb -
4:10am 2 5 mph 1030.1mb -
4:00am 2 8 mph 1030.1mb -
3:40am 3 8 mph 1030.1mb 1f
3:30am 6 8 mph 1030.1mb 1f
3:20am 5 8 mph 1030.1mb 2f
3:16am 6 10 mph 1030.1mb 1f
3:10am 6 9 mph 1030.1mb 1f
3:00am 7 10 mph 1030.1mb 2f
2:40am 8 9 mph 1030.5mb 1f
2:30am 7 8 mph 1030.5mb 2f
2:20am 6 9 mph 1030.5mb 2f
2:15am 7 13 mph 1030.5mb 3f
2:10am 6 8 mph 1030.8mb 4f
2:00am 2 7 mph 1030.8mb 4f
1:40am 2 9 mph 1031.2mb 3f
1:30am 10 13 mph 1031.2mb 4f
1:20am 10 16 mph 1031.2mb 5f
1:15am 15 16 mph 1031.2mb 6f
1:10am 13 15 mph 1031.5mb 4f
1:00am 13
mph
1031.5mb 3f
12:40am 8 13 mph 1031.5mb 2f
12:30am 11 15 mph 1031.5mb 2f
12:20am 15 16 mph 1031.5mb 4f
12:14am 16
mph
1031.5mb 5f
12:10am 13 15 mph 1031.5mb 5f
12:00am 11 15 mph 1031.5mb 6f
Thu 03/05 11:40pm 14 15 mph 1031.5mb 7f
11:30pm 14 15 mph 1031.8mb 7f
11:20pm 15 16 mph 1031.8mb 8f
11:14pm 15
mph
- -
11:10pm 15
mph
1031.8mb 8f
11:00pm 14
mph
1031.8mb 8f
10:40pm 11
mph
1031.8mb 8f
10:30pm 11 13 mph 1031.8mb 8f
10:20pm 11 13 mph 1032.2mb 8f
10:14pm 10 16 mph 1032.2mb 9f
10:10pm 13 14 mph 1032.2mb 9f
10:00pm 13 14 mph 1031.8mb 9f
9:40pm 16
mph
1031.8mb 10f
9:30pm 15 16 mph 1031.8mb 10f
9:20pm 15 17 mph 1031.8mb 11f
9:13pm 16 17 mph 1031.8mb 10f
9:10pm 16 17 mph 1031.8mb 10f
9:00pm 15 16 mph 1031.8mb 11f
8:40pm 14 15 mph 1031.5mb 11f
8:30pm 14 15 mph 1031.5mb 12f
8:20pm 15 17 mph 1031.2mb 12f
8:13pm 17 20 mph 1031.2mb 13f
8:10pm 17 18 mph 1031.2mb 13f
8:00pm 18
mph
1031.2mb 12f
7:50pm 18
mph
1031.2mb 12f
7:40pm 18 20 mph 1031.2mb 12f
7:30pm 18 20 mph 1030.8mb 12f
7:20pm 18 20 mph 1030.8mb 12f
7:12pm 18 20 mph 1030.8mb 12f
7:10pm 18 20 mph 1030.8mb 12f
7:00pm 18
mph
1030.8mb 13f
6:50pm 16 17 mph 1030.8mb 12f
6:40pm 17
mph
1030.8mb 12f
6:30pm 16 17 mph 1030.5mb 13f
6:20pm 16 17 mph 1030.5mb 12f
6:12pm 16 17 mph 1030.5mb 11f
6:10pm 16 17 mph 1030.5mb 11f
6:00pm 15 16 mph 1030.5mb 10f
5:50pm 15 16 mph 1030.1mb 10f
5:30pm 1 5 mph 1029.8mb 11f
5:20pm 1 7 mph 1029.8mb 11f
5:12pm 5 16 mph 1029.8mb 11f
5:10pm 5 9 mph 1029.8mb 11f
4:50pm 7 11 mph 1029.5mb 12f
4:40pm 9 15 mph 1029.8mb 12f
4:30pm 14 16 mph 1029.8mb 13f
4:20pm 11 15 mph 1029.8mb 13f
4:11pm 9 17 mph 1029.5mb 13f
4:10pm 9 14 mph 1029.5mb 13f
4:00pm 11 15 mph 1029.5mb 13f
3:50pm 15 16 mph 1029.5mb 13f
3:40pm 15 16 mph 1029.5mb 12f
3:30pm 13 16 mph 1029.5mb 11f
3:20pm 15 17 mph 1029.5mb 11f
3:11pm 16 18 mph 1029.5mb 11f
3:10pm 16 18 mph 1029.5mb 11f
3:00pm 16 18 mph 1029.1mb 11f
2:50pm 17 18 mph 1029.5mb 12f
2:40pm 11 16 mph 1029.5mb 12f
2:30pm 8 13 mph 1029.1mb 13f
2:20pm 6 9 mph 1029.1mb 13f
2:10pm 5 11 mph 1029.1mb 13f
2:00pm 3 8 mph 1029.1mb 13f
1:50pm 3 9 mph 1029.1mb 11f
1:40pm 2 11 mph 1029.5mb 11f
1:30pm 5 10 mph 1029.5mb 11f
1:20pm 5 9 mph 1029.5mb 11f
1:10pm 3 15 mph 1029.5mb 11f
1:00pm 2 13 mph 1029.5mb 11f
12:50pm 3 11 mph 1029.5mb 10f
12:40pm 3 9 mph 1029.5mb 10f
12:30pm 5 15 mph 1029.8mb 10f
12:20pm 5 14 mph 1029.8mb 10f
12:10pm 5 13 mph 1029.8mb 10f
12:09pm 7 14 mph 1029.8mb 10f
12:00pm 8 14 mph 1029.8mb 10f
11:50am 11 14 mph 1030.1mb 10f
11:30am 9 11 mph 1030.1mb 9f
11:20am 9 14 mph 1030.1mb 9f
11:10am 9 11 mph 1030.1mb 8f
11:09am 8 13 mph 1029.8mb 8f
11:00am 10 13 mph 1029.8mb 8f
10:50am 11 13 mph 1029.8mb 8f
10:40am 10 11 mph 1029.8mb 7f
10:30am 10 11 mph 1030.1mb 7f
10:20am 10 11 mph 1030.1mb 6f
10:10am 10 11 mph 1030.1mb 6f
10:09am 9 13 mph 1030.1mb 6f
10:00am 9 10 mph 1030.1mb 5f
9:50am 9 10 mph 1030.1mb 5f
9:40am 9 10 mph 1030.5mb 4f
9:30am 10 11 mph 1030.5mb 4f
9:20am 11 13 mph 1030.5mb 3f
9:10am 13
mph
1030.1mb 3f
9:08am 11 14 mph 1030.1mb 3f
9:00am 10 13 mph 1030.1mb 2f
8:50am 11 13 mph 1029.8mb 2f
8:40am 10 11 mph 1029.8mb 1f
8:30am 11 14 mph 1029.8mb 1f
8:20am 13 14 mph 1029.8mb -
8:10am 11 13 mph 1029.5mb -1f
8:08am 10 14 mph 1029.5mb -1f
8:00am 9 11 mph 1029.5mb -2f
7:50am 9 10 mph 1029.5mb -2f
7:40am 7 9 mph 1029.1mb -3f
7:30am 9 11 mph 1029.1mb -3f
7:20am 10 14 mph 1029.1mb -2f
7:10am 13 15 mph 1029.5mb -2f
7:07am 13 16 mph 1029.5mb -2f
7:00am 14 15 mph 1029.1mb -2f
6:50am 15 16 mph 1028.8mb -1f
6:40am 15 16 mph 1028.1mb -1f
6:30am 15
mph
1028.4mb -1f
6:10am 13 14 mph 1028.4mb -1f
6:07am 13 15 mph 1028.4mb -1f
6:00am 14 15 mph 1028.1mb -
5:50am 14
mph
1028.1mb -
5:40am 11 13 mph 1028.4mb -
5:30am 11 13 mph 1028.4mb -
5:20am 11 13 mph 1028.4mb -
5:10am 11
mph
1027.8mb -
5:07am 10 13 mph 1027.8mb -
5:00am 10 11 mph 1027.8mb -
4:50am 10 11 mph 1027.8mb -
4:40am 10 11 mph 1027.8mb -
4:30am 9 13 mph 1027.4mb -
4:20am 10 11 mph 1027.4mb -
4:10am 9 10 mph 1027.1mb 1f
4:06am 10
mph
1027.1mb 1f
4:00am 9 10 mph 1027.1mb 1f
3:50am 9 10 mph 1027.1mb 1f
3:40am 7 8 mph 1027.4mb 1f
3:30am 6 7 mph 1027.1mb 1f
3:20am 7 9 mph 1026.8mb 2f
3:10am 9
mph
1026.8mb 2f
3:06am 9 10 mph 1026.4mb 2f
3:00am 8 9 mph 1026.4mb 2f
2:50am 9
mph
1026.4mb 2f
2:40am 8 9 mph 1026.4mb 3f
2:30am 7 8 mph 1026.8mb 3f
2:20am 8 10 mph 1026.8mb 3f
2:10am 10
mph
1026.8mb 4f
2:05am 10 13 mph 1026.8mb 4f
2:00am 10 11 mph 1027.1mb 4f
1:50am 11 13 mph 1027.1mb 4f
1:40am 10 11 mph 1027.1mb 4f
1:30am 10
mph
1027.1mb 4f
1:20am 9 10 mph 1027.1mb 4f
1:10am 8
mph
1027.1mb 4f
1:05am 7 10 mph 1027.1mb 4f
12:50am 8 9 mph 1027.1mb 5f
12:40am 9 10 mph 1027.1mb 5f
12:30am 9 10 mph 1027.1mb 5f
12:20am 9 10 mph 1026.4mb 5f
12:10am 10 11 mph 1026.8mb 6f
12:05am 10 20 mph 1026.8mb 6f
12:00am 10 14 mph 1026.4mb 6f
Wed 03/04 11:50pm 13 15 mph 1026.1mb 6f
11:40pm 15 16 mph 1026.1mb 6f
11:30pm 15 18 mph 1026.1mb 6f
11:20pm 17 20 mph 1026.1mb 7f
11:10pm 16 18 mph 1026.1mb 7f
11:04pm 16 18 mph 1025.4mb 8f
11:00pm 17 18 mph 1024.7mb 8f
10:50pm 16 17 mph 1024.4mb 8f
10:40pm 15 17 mph 1024.7mb 8f
10:30pm 13 15 mph 1025.1mb 9f
10:20pm 15 16 mph 1025.4mb 9f
10:10pm 14 17 mph 1025.4mb 10f
10:04pm 15 17 mph 1025.1mb 10f
10:00pm 14 17 mph 1025.1mb 10f
9:50pm 14 15 mph 1024.7mb 10f
9:40pm 14 16 mph 1024.7mb 10f
9:30pm 13 15 mph 1024.7mb 11f
9:20pm 13 16 mph 1024.4mb 11f
9:10pm 13 15 mph 1024.4mb 11f
9:03pm 14 24 mph 1023.7mb 11f
9:00pm 14 16 mph 1023.4mb 11f
8:50pm 15 18 mph 1022.7mb 11f
8:40pm 17 23 mph 1022.4mb 11f
8:30pm 20 24 mph 1022mb 12f
8:20pm 20 23 mph 1021.7mb 12f
8:10pm 17 20 mph 1022mb 12f
8:03pm 16 24 mph 1022mb 13f
8:00pm 16 22 mph 1021.7mb 13f
7:50pm 18 23 mph 1022mb 13f
7:30pm 20 24 mph 1021.7mb 13f
7:20pm 20 26 mph 1021.7mb 14f
7:10pm 29 33 mph 1021mb 14f
7:03pm 24
mph
1020.7mb 14f
7:00pm 25 33 mph 1020.7mb 14f
6:50pm 23 29 mph 1020.3mb 15f
6:40pm 22 28 mph 1019.6mb 15f
6:30pm 26 31 mph 1019.6mb 16f
6:20pm 25 29 mph 1018.6mb 17f
6:19pm 23 29 mph 1019mb 17f
6:10pm 22 25 mph 1018.3mb 17f
6:00pm 23 28 mph 1017.9mb 18f
5:50pm 24 29 mph 1017.6mb 18f
5:30pm 28 31 mph 1017.3mb 19f
5:20pm 28 30 mph 1016.9mb 19f
5:10pm 23 32 mph 1016.9mb 20f
5:02pm 26
mph
1016.6mb 20f
5:00pm 26 29 mph 1016.6mb 20f
4:50pm 28 31 mph 1016.6mb 20f
4:48pm 29
mph
1016.6mb 21f
4:40pm 26 32 mph 1016.3mb 21f
4:30pm 31 32 mph 1015.9mb 21f
4:20pm 28 31 mph 1015.9mb 22f
4:10pm 26 31 mph 1015.9mb 22f
4:01pm 28
mph
1015.6mb 22f
4:00pm 28 31 mph 1015.6mb 22f
3:50pm 28 32 mph 1015.2mb 22f
3:40pm 26 32 mph 1015.2mb 23f
3:30pm 28 32 mph 1014.9mb 23f
3:20pm 26 31 mph 1014.9mb 23f
3:10pm 29 32 mph 1014.6mb 23f
3:01pm 24
mph
1014.9mb 24f
3:00pm 24 29 mph 1014.9mb 24f
2:50pm 28 31 mph 1014.9mb 24f
2:40pm 25 26 mph 1014.6mb 24f
2:30pm 22 25 mph 1014.6mb 24f
2:10pm 18 26 mph 1014.6mb 24f
2:00pm 24 26 mph 1014.6mb 24f
1:50pm 22 26 mph 1014.6mb 24f
1:40pm 22 26 mph 1014.6mb 24f
1:30pm 22 25 mph 1014.2mb 24f
1:20pm 20 25 mph 1014.2mb 25f
1:10pm 18 24 mph 1014.2mb 24f
1:00pm 21
mph
1014.2mb 24f
12:50pm 22 28 mph 1014.2mb 24f
12:40pm 24 30 mph 1014.2mb 24f
12:30pm 26 31 mph 1014.2mb 24f
12:25pm 23 30 mph 1014.6mb 25f
12:20pm 24 28 mph 1014.2mb 25f
12:10pm 24 26 mph 1014.6mb 25f
12:00pm 25 28 mph 1014.2mb 25f
11:50am 20 23 mph 1014.2mb 25f
11:40am 18 21 mph 1013.9mb 25f
11:30am 17 21 mph 1014.2mb 25f
11:20am 15 18 mph 1013.9mb 25f
11:10am 14 18 mph 1014.2mb 25f
11:00am 17 21 mph 1013.9mb 24f
10:50am 14 17 mph 1013.9mb 24f
10:41am 15 20 mph 1013.5mb 24f
10:40am 15 17 mph 1013.5mb 24f
10:30am 14 20 mph 1013.9mb 24f
10:20am 17 20 mph 1013.5mb 24f
10:10am 13 18 mph 1013.9mb 24f
10:00am 14 17 mph 1013.9mb 23f
9:50am 15 18 mph 1013.9mb 24f
9:41am 17 21 mph 1013.9mb 23f
9:40am 17 20 mph 1013.9mb 23f
9:30am 18 21 mph 1014.2mb 23f
9:20am 18 21 mph 1014.2mb 23f
9:10am 13 16 mph 1014.2mb 23f
8:50am 10 14 mph 1013.9mb 22f
8:40am 11 15 mph 1013.9mb 22f
8:30am 14 16 mph 1013.5mb 22f
8:20am 14 16 mph 1013.5mb 22f
8:10am 13 15 mph 1013.5mb 22f
8:00am 11 13 mph 1013.5mb 22f
7:50am 11 16 mph 1013.2mb 22f
7:40am 11 13 mph 1013.2mb 22f
7:30am 10 14 mph 1013.2mb 22f
7:20am 14 15 mph 1012.9mb 22f
7:10am 14 18 mph 1012.9mb 22f
7:00am 15 18 mph 1012.5mb 22f
6:50am 11 15 mph 1012.5mb 22f
6:40am 14 17 mph 1012.5mb 22f
6:30am 14 16 mph 1012.2mb 23f
6:20am 14 15 mph 1011.9mb 23f
6:10am 14 18 mph 1011.9mb 21f
6:00am 17 18 mph 1011.5mb 23f
5:50am 16 18 mph 1011.2mb 23f
5:40am 18 20 mph 1011.2mb 23f
5:30am 17 18 mph 1011.2mb 22f
5:24am 17 20 mph 1011.2mb 22f
5:20am 16 17 mph 1010.8mb 22f
5:10am 15 17 mph 1010.5mb 22f
5:00am 14 16 mph 1010.5mb 22f
4:50am 14 17 mph 1010.5mb 22f
4:40am 17 20 mph 1010.2mb 22f
4:30am 15 21 mph 1010.2mb 21f
4:24am 20 22 mph 1009.8mb 21f
4:20am 16 21 mph 1009.8mb 21f
4:10am 18 20 mph 1009.5mb 21f
4:00am 17 21 mph 1009.1mb 22f
3:50am 21
mph
1009.1mb 22f
3:30am 21 22 mph 1009.1mb 23f
3:23am 20 21 mph 1008.8mb 24f
3:20am 21
mph
1008.8mb 24f
3:10am 20 21 mph 1008.8mb 23f
3:00am 20 21 mph 1008.5mb 24f
2:50am 20 21 mph 1008.5mb 24f
2:40am 20
mph
1008.5mb 24f
2:30am 20
mph
1008.8mb 24f
2:23am 18 21 mph 1008.8mb 23f
2:20am 18
mph
1008.8mb 23f
2:10am 16 18 mph 1008.8mb 24f
2:00am 16 18 mph 1008.8mb 24f
1:50am 18 20 mph 1008.8mb 25f
1:40am 18 20 mph 1008.8mb 25f
1:30am 18 21 mph 1008.5mb 25f
1:23am 18 20 mph 1008.5mb 25f
1:20am 18 20 mph 1008.5mb 25f
1:10am 15 16 mph 1008.1mb 25f
1:00am 14 15 mph 1008.5mb 25f
12:50am 13
mph
1008.1mb 25f
12:40am 13
mph
1008.1mb 24f
12:30am 11
mph
1007.5mb 24f
12:22am 9 14 mph 1007.8mb 26f
12:20am 9 10 mph 1007.5mb 26f
12:10am 9 14 mph 1007.5mb 26f
12:00am 10 11 mph 1007.5mb 25f
Tue 03/03 11:50pm 11 13 mph 1007.5mb 26f
11:40pm 13 14 mph 1007.8mb 25f
11:30pm 11 13 mph 1007.8mb 25f
11:22pm 9 15 mph 1007.8mb 26f
11:20pm 9 13 mph 1007.8mb 26f
11:10pm 10 13 mph 1007.5mb 26f
11:00pm 9 10 mph 1007.5mb 27f
10:50pm 8 11 mph 1007.1mb 27f
10:40pm 10 13 mph 1006.8mb 28f
10:30pm 11 17 mph 1006.4mb 28f
10:21pm 16 23 mph 1006.8mb 28f
10:10pm 17 22 mph 1006.4mb 28f
10:00pm 18 23 mph 1006.1mb 28f
9:50pm 17 22 mph 1005.8mb 29f
9:40pm 15 20 mph 1005.8mb 29f
9:30pm 16 18 mph 1005.8mb 29f
9:21pm 15 22 mph 1005.8mb 29f
9:20pm 15 18 mph 1005.8mb 29f
9:10pm 14 16 mph 1005.4mb 29f
9:00pm 15 22 mph 1004.7mb 29f
8:50pm 16 21 mph 1004.4mb 30f
8:21pm 13 16 mph 1004.1mb 29f
7:40pm 11 13 mph 1003.4mb 29f
7:30pm 11 14 mph 1003.4mb 29f
7:20pm 11 14 mph 1003mb 28f
7:10pm 9 10 mph 1003mb 27f
7:00pm 9 10 mph 1002.7mb 27f
6:50pm 8 9 mph 1002.7mb 26f
6:20pm 7 8 mph 1002mb 26f
5:30pm 6 8 mph 1001mb 26f
5:20pm 8 9 mph 1001mb 26f
5:19pm 8 9 mph 1001mb 26f
5:10pm 8 9 mph 1001.4mb 26f
4:50pm 7 8 mph 1000.7mb 26f
4:40pm 7 8 mph 1000.7mb 26f
4:30pm 7 8 mph 1001mb 26f
4:20pm 7 8 mph 1001.4mb 26f
4:19pm 7 9 mph 1001.4mb 26f
4:10pm 7 8 mph 1001mb 25f
4:00pm 8 9 mph 1001mb 25f
3:50pm 5 8 mph 1001.4mb 25f
3:40pm 1 8 mph 1001.4mb 25f
3:30pm 2 9 mph 1001.4mb 25f
3:20pm 6 8 mph 1001.7mb 25f
3:19pm  -  13 mph 1001.4mb 25f
3:10pm 3 7 mph 1002.4mb 25f
3:00pm 2 8 mph 1002.4mb 25f
2:50pm 5 11 mph 1002.4mb 24f
2:40pm 10 13 mph 1002.4mb 24f
2:30pm 11 13 mph 1002mb 24f
2:20pm 11 15 mph 1002.7mb 24f
2:18pm 11 21 mph 1002.7mb 24f
2:10pm 13 15 mph 1003.4mb 24f
2:00pm 14 16 mph 1003.4mb 24f
1:50pm 13 16 mph 1003.4mb 23f
1:40pm 16 20 mph 1003.4mb 23f
1:30pm 16 21 mph 1003.7mb 23f
1:20pm 17 18 mph 1004.1mb 23f
1:18pm 16 22 mph 1004.1mb 23f
1:10pm 16 20 mph 1004.4mb 23f
1:00pm 17 20 mph 1004.7mb 23f
12:50pm 16 18 mph 1005.4mb 22f
12:40pm 16 20 mph 1006.1mb 22f
12:30pm 16 21 mph 1006.4mb 22f
12:20pm 18 23 mph 1007.1mb 22f
12:17pm 20 23 mph 1007.1mb 22f
12:10pm 20 22 mph 1007.5mb 22f
12:00pm 20 23 mph 1008.1mb 22f
11:50am 20 22 mph 1008.5mb 22f
11:30am 20 22 mph 1009.8mb 21f
11:20am 20 23 mph 1010.5mb 21f
11:17am 21 25 mph 1010.5mb 21f
11:10am 21 24 mph 1010.8mb 21f
11:00am 21 25 mph 1011.5mb 21f
10:40am 23 24 mph 1011.9mb 21f
10:30am 20 24 mph 1012.2mb 21f
10:20am 22 24 mph 1012.2mb 21f
10:17am 21 25 mph 1012.9mb 21f
10:10am 21 23 mph 1013.2mb 21f
10:00am 22 25 mph 1013.9mb 21f
9:40am 22 23 mph 1014.6mb 21f
9:30am 18 21 mph 1014.9mb 21f
9:20am 20 21 mph 1015.2mb 21f
9:16am 16 25 mph 1015.6mb 21f
9:10am 18 24 mph 1015.6mb 21f
9:00am 21 24 mph 1016.3mb 21f
8:50am 18 22 mph 1016.6mb 21f
8:40am 20 23 mph 1016.9mb 21f
8:30am 20 24 mph 1017.6mb 21f
8:20am 23 25 mph 1017.9mb 21f
8:16am 21 24 mph 1017.9mb 21f
8:10am 21 24 mph 1017.9mb 22f
8:00am 20 22 mph 1018.3mb 21f
7:50am 18 21 mph 1018.6mb 21f
7:40am 17 18 mph 1018.3mb 21f
7:30am 17 18 mph 1019mb 21f
7:20am 15 17 mph 1019.3mb 21f
7:15am 16 18 mph 1019.3mb 21f
7:10am 14 16 mph 1019.6mb 21f
7:00am 13 15 mph 1019.6mb 21f
6:50am 14 16 mph 1019.6mb 21f
6:40am 15 17 mph 1019.6mb 21f
6:30am 16 18 mph 1019.6mb 21f
6:15am 17 18 mph 1020.3mb 21f
6:10am 16 18 mph 1020.3mb 21f
6:00am 16 17 mph 1020.3mb 20f
5:50am 16 17 mph 1020.7mb 20f
5:40am 15
mph
1021mb 20f
5:30am 14
mph
1021mb 20f
5:20am 13 14 mph 1021.3mb 20f
5:15am 13 17 mph 1021.7mb 20f
5:10am 13 15 mph 1021.7mb 20f
5:00am 14 16 mph 1021.7mb 20f
4:50am 14 16 mph 1022.4mb 20f
4:40am 14 17 mph 1022.4mb 20f
4:30am 13 15 mph 1022.7mb 20f
4:20am 13 17 mph 1023mb 20f
4:14am 15 17 mph 1023mb 20f
4:10am 16 17 mph 1023mb 20f
4:00am 15 16 mph 1023mb 20f
3:50am 14 15 mph 1023.4mb 20f
3:40am 14 15 mph 1023.7mb 20f
3:30am 13 14 mph 1023.7mb 19f
3:20am 13 14 mph 1024mb 19f
3:14am 10 18 mph 1024mb 19f
3:10am 13 14 mph 1024mb 19f
3:00am 14 17 mph 1024.4mb 20f
2:50am 16 17 mph 1024.4mb 19f